Current Weather Conditions by Major Hwy


I-84 West to East [Columbia River Gorge] 1100 AM PDT MON JUN 17 2019 ELEVA CITY SKY/WX TMP DP RH WIND PRES REMARKS 10 ASTORIA, OR CLOUDY 59 55 87 NW7 30.18R 20 KELSO CLOUDY 62 53 72 W6 30.17R 40 PORTLAND, OR CLOUDY 64 51 62 N3 30.16R 30 TROUTDALE, OR CLOUDY 61 52 72 SW3 30.16R 240 THE DALLES, OR FAIR 75 54 47 NW21G29 29.99S 620 HERMISTON, OR FAIR 82 48 30 SW8 29.97F 1,480 PENDLETON, OR FAIR 78 46 32 VRB6 30.00S 2,710 LA GRANDE FAIR 76 48 37 NW15 30.03S 3,370 BAKER CITY FAIR 74 49 41 W7 30.05S 2,190 ONTARIO FAIR 86 46 24 W6 29.96S
I-90 West to East 1100 AM PDT MON JUN 17 2019 ELEVA CITY SKY/WX TMP DP RH WIND PRES REMARKS 30 SEATAC AIRPORT CLOUDY 61 52 72 SW7 30.16R 1,730 ELLENSBURG FAIR 77 51 40 NW22G30 30.00R 1,200 MOSES LAKE FAIR 86 47 25 W7 29.96S 1,880 SPOKANE GEIGER PTSUNNY 72 52 49 SE7 30.02R
I-82 North West to South East 1100 AM PDT MON JUN 17 2019 ELEVA CITY SKY/WX TMP DP RH WIND PRES REMARKS 1,730 ELLENSBURG FAIR 77 51 40 NW22G30 30.00R 1,050 YAKIMA TC FAIR 79 45 29 W6 29.97S 720 360 PASCO FAIR 81 49 32 VRB5 29.97S 620 HERMISTON, OR FAIR 82 48 30 SW8 29.97F
Hwy97 North to South 1100 AM PDT MON JUN 17 2019 ELEVA CITY SKY/WX TMP DP RH WIND PRES REMARKS 850 OMAK FAIR 82 48 30 N10 29.95F 630 WENATCHEE FAIR 79 45 29 NW10 29.96F 1,730 ELLENSBURG FAIR 77 51 40 NW22G30 30.00R 1,050 YAKIMA TC FAIR 79 45 29 W6 29.97S 1,640 GOLDENDALE* FAIR 75 54 47 NW21G29 29.99S *From Dallesport Airport Elev 240 3,080 REDMOND FAIR 76 41 28 VRB5 30.10S 4,100 KLAMATH FALLS FAIR 73 41 31 NW6 30.10F
I-5 North to South 1100 AM PDT MON JUN 17 2019 ELEVA CITY SKY/WX TMP DP RH WIND PRES REMARKS 150 BELLINGHAM FAIR 60 52 74 S17 30.12R 100 ARLINGTON FAIR 67 55 65 NW6 30.14S 610 EVERETT FAIR 62 54 74 W9 30.16R 30 SEATAC AIRPORT CLOUDY 61 52 72 SW7 30.16R 200 OLYMPIA CLOUDY 58 52 80 SW6 30.17R 20 KELSO CLOUDY 62 53 72 W6 30.17R 100 VANCOUVER CLOUDY 63 52 67 VRB5 30.15S 40 PORTLAND CLOUDY 64 51 62 N3 30.16R 200 SALEM FAIR 69 52 54 VRB3 30.13S 360 EUGENE FAIR 73 54 51 N10 30.14R 510 ROSEBURG FAIR 74 53 48 N6 30.10F 1,300 MEDFORD FAIR 75 48 38 S3 30.06F
Data from:
http://www.wrh.noaa.gov/sew/get.php?pil=RWR&sid=OR&version=0&format=printer
http://www.wrh.noaa.gov/sew/get.php?pil=RWR&sid=WA&version=0&format=printer

Current Observations

Washington State Current Weather Observations   …  Oregon State Current Weather Observation



48 Hour Forecast

Seattle  …  Vancouver  …  Portland
————————————————————————————————————————
Bend  …  Spokane  …  Richland  …  Pendleton  …  Blue Mountains I-84  …  Yakima
————————————————————————————————————————
Goldendale, Washington Higher Elevations  …  Dallesport Airport - Goldendale  …  Bingen - White Salmon - Hood River  …  Index


Top of Page